Hobbs, NM

9:02 AM MDT on September 20, 2017 (GMT -0600)
Lea County Regional

Weather History for KHOB - September, 2013

Change the Weather History Date:

Sunday, September 15, 2013

  Actual Average Record
Temperature  
Mean Temperature 74 °F -  
Max Temperature 87 °F 86 °F 101 °F (1956)
Min Temperature 62 °F 60 °F 48 °F (1957)
Cooling Degree Days 10    
Growing Degree Days 24 (Base 50)    
Moisture  
Dew Point 47 °F    
Average Humidity 41    
Maximum Humidity 60    
Minimum Humidity 22    
Precipitation  
Precipitation 0.00 in - - ()
Sea Level Pressure  
Sea Level Pressure 30.07 in    
Wind  
Wind Speed 4 mph (SE)    
Max Wind Speed 16 mph    
Max Gust Speed 23 mph    
Visibility 10 miles    
Events      
Averages and records for this station are not official NWS values.
T = Trace of Precipitation, MM = Missing Value Source: NWS Daily Summary

Daily Weather History Graph

Daily Weather History Graph

Search for Another Location

Airport or City:

Trip Planner

Search our weather history database for the weather conditions in past years. The results will help you decide how hot, cold, wet, or windy it might be!

Date:

Astronomy

Sep. 15, 2013 Rise Set
Actual Time 6:36 AM MDT 6:58 PM MDT
Civil Twilight 6:12 AM MDT 7:23 PM MDT
Nautical Twilight 5:43 AM MDT 7:52 PM MDT
Astronomical Twilight 5:13 AM MDT 8:21 PM MDT
Moon 4:18 PM MDT (9/15) 2:28 AM MDT (9/15)
Length of Visible Light 13h 11m
Length of Day
12h 21m
Waxing Gibbous, 82% of the Moon is Illuminated
Sep 15
Waxing Gibbous
Sep 19
Full
Sep 26
Last Quarter
Oct 4
New
Oct 11
First Quarter

Hourly Weather History & Observations

Time (MDT) Temp. Heat Index Dew Point Humidity Pressure Visibility Wind Dir Wind Speed Gust Speed Precip Events Conditions
12:15 AM 71.6 °F - 46.4 °F 41% 30.04 in 10.0 mi Calm Calm - N/A   Clear
12:35 AM 69.8 °F - 46.4 °F 43% 30.04 in 10.0 mi Calm Calm - N/A   Clear
12:55 AM 68.0 °F - 46.4 °F 46% 30.04 in 10.0 mi SSE 4.6 mph - N/A   Clear
1:15 AM 68.0 °F - 46.4 °F 46% 30.04 in 10.0 mi SSE 4.6 mph - N/A   Clear
1:35 AM 66.2 °F - 46.4 °F 49% 30.04 in 10.0 mi Calm Calm - N/A   Clear
1:55 AM 66.2 °F - 46.4 °F 49% 30.04 in 10.0 mi Calm Calm - N/A   Clear
2:15 AM 66.2 °F - 46.4 °F 49% 30.03 in 10.0 mi Calm Calm - N/A   Clear
2:35 AM 66.2 °F - 46.4 °F 49% 30.03 in 10.0 mi Calm Calm - N/A   Clear
2:55 AM 66.2 °F - 46.4 °F 49% 30.03 in 10.0 mi Calm Calm - N/A   Clear
3:15 AM 64.4 °F - 44.6 °F 49% 30.02 in 10.0 mi Calm Calm - N/A   Clear
3:35 AM 64.4 °F - 44.6 °F 49% 30.03 in 10.0 mi Calm Calm - N/A   Clear
3:55 AM 64.4 °F - 46.4 °F 52% 30.03 in 10.0 mi Calm Calm - N/A   Clear
4:15 AM 64.4 °F - 46.4 °F 52% 30.03 in 10.0 mi Calm Calm - N/A   Clear
4:35 AM 64.4 °F - 44.6 °F 49% 30.03 in 10.0 mi Calm Calm - N/A   Clear
4:55 AM 64.4 °F - 46.4 °F 52% 30.04 in 10.0 mi Calm Calm - N/A   Clear
5:50 AM 62.6 °F - 46.4 °F 55% 30.05 in 10.0 mi Calm Calm - N/A   Partly Cloudy
6:50 AM 62.6 °F - 46.4 °F 55% 30.07 in 10.0 mi Calm Calm - N/A   Mostly Cloudy
7:50 AM 66.2 °F - 50.0 °F 56% 30.09 in 10.0 mi ESE 5.8 mph - N/A   Mostly Cloudy
8:50 AM 71.6 °F - 57.2 °F 60% 30.10 in 10.0 mi SE 13.8 mph - N/A   Mostly Cloudy
9:50 AM 75.2 °F - 57.2 °F 53% 30.11 in 10.0 mi SE 16.1 mph 21.9 mph N/A   Mostly Cloudy
10:50 AM 78.8 °F - 57.2 °F 47% 30.10 in 10.0 mi SE 13.8 mph 23.0 mph N/A   Scattered Clouds
11:50 AM 82.4 °F 81.7 °F 55.4 °F 39% 30.10 in 10.0 mi SE 9.2 mph 17.3 mph N/A   Mostly Cloudy
12:50 PM 84.2 °F 82.8 °F 53.6 °F 35% 30.09 in 10.0 mi SE 9.2 mph - N/A   Scattered Clouds
1:50 PM 84.2 °F 82.8 °F 53.6 °F 35% 30.07 in 10.0 mi ESE 12.7 mph 17.3 mph N/A   Mostly Cloudy
2:50 PM 86.0 °F - 46.4 °F 25% 30.05 in 10.0 mi ESE 10.4 mph 19.6 mph N/A   Mostly Cloudy
3:50 PM 87.8 °F - 44.6 °F 22% 30.03 in 10.0 mi East 13.8 mph 20.7 mph N/A   Mostly Cloudy
4:50 PM 86.0 °F - 44.6 °F 23% 30.03 in 10.0 mi SE 11.5 mph - N/A   Mostly Cloudy
5:45 PM 84.2 °F - 44.6 °F 25% 30.05 in 10.0 mi SE 9.2 mph - N/A   Mostly Cloudy
6:15 PM 84.2 °F - 46.4 °F 27% 30.07 in 10.0 mi SE 8.1 mph - N/A   Clear
6:35 PM 82.4 °F - 46.4 °F 28% 30.08 in 10.0 mi ESE 8.1 mph - N/A   Clear
6:55 PM 82.4 °F - 44.6 °F 26% 30.08 in 10.0 mi SE 6.9 mph - N/A   Clear
7:15 PM 80.6 °F - 44.6 °F 28% 30.08 in 10.0 mi ESE 5.8 mph - N/A   Clear
7:35 PM 77.0 °F - 44.6 °F 32% 30.08 in 10.0 mi East 5.8 mph - N/A   Partly Cloudy
7:55 PM 77.0 °F - 42.8 °F 29% 30.09 in 10.0 mi East 5.8 mph - N/A   Mostly Cloudy
8:15 PM 77.0 °F - 44.6 °F 32% 30.10 in 10.0 mi ESE 6.9 mph - N/A   Mostly Cloudy
8:35 PM 77.0 °F - 46.4 °F 34% 30.11 in 10.0 mi SE 9.2 mph - N/A   Partly Cloudy
8:55 PM 78.8 °F - 48.2 °F 34% 30.11 in 10.0 mi SE 10.4 mph - N/A   Clear
9:15 PM 78.8 °F - 48.2 °F 34% 30.12 in 10.0 mi SE 11.5 mph - N/A   Clear
9:35 PM 78.8 °F - 48.2 °F 34% 30.12 in 10.0 mi SE 13.8 mph - N/A   Clear
9:55 PM 77.0 °F - 46.4 °F 34% 30.13 in 10.0 mi SE 10.4 mph - N/A   Clear
10:15 PM 75.2 °F - 46.4 °F 36% 30.13 in 10.0 mi SSE 8.1 mph - N/A   Clear
10:35 PM 73.4 °F - 46.4 °F 38% 30.13 in 10.0 mi SSE 4.6 mph - N/A   Clear
10:55 PM 71.6 °F - 46.4 °F 41% 30.14 in 10.0 mi Calm Calm - N/A   Clear
11:15 PM 71.6 °F - 46.4 °F 41% 30.14 in 10.0 mi Calm Calm - N/A   Clear
11:35 PM 68.0 °F - 46.4 °F 46% 30.14 in 10.0 mi Calm Calm - N/A   Clear
11:55 PM 68.0 °F - 46.4 °F 46% 30.14 in 10.0 mi Calm Calm - N/A   Clear